Location: Asheville, NC
(35.6000°N, 82.5500°W)
Time: 06:37:43
(UTC-05:00)

XW-2B - Pass Details

Date: 09 January 2018
Orbit: 511 x 530 km, 97.5° (Epoch: 18 January)

Event Time Altitude Azimuth Distance (km) Brightness Sun altitude
Rises 18:46:04 0° 202° (SSW) 2,653 ? -14.2°
Reaches altitude 10° 18:48:44 10° 223° (SW) 1,769 ? -14.8°
Maximum altitude 18:51:19 17° 266° (W) 1,372 ? -15.3°
Drops below altitude 10° 18:53:55 10° 308° (NW) 1,778 ? -15.8°
Sets 18:56:37 0° 329° (NNW) 2,672 ? -16.3°
